Regional Weather Roundup
Issued by NWS Raleigh/Durham, NC

Home | Current Version | Previous Version | Text Only | Print | Product List | Glossary On
Versions: 1 2 3 4 5 6 7 8 9 10 11 12 13 14 15 16 17 18 19 20 21 22 23 24 25 26 27 28 29 30 31 32 33 34 35 36 37 38 39 40 41 42 43 44 45 46 47 48 49 50
000
ASUS42 KRAH 282010
RWRRAH
NORTH CAROLINA WEATHER ROUNDUP
NATIONAL WEATHER SERVICE RALEIGH NC
400 PM EDT MON JUL 28 2014

NOTE: "FAIR" INDICATES FEW OR NO CLOUDS BELOW 12,000 FEET WITH NO
SIGNIFICANT WEATHER AND/OR OBSTRUCTIONS TO VISIBILITY.

NCZ001-053-055-056-065-067-282100-
WESTERN NORTH CAROLINA

CITY           SKY/WX    TMP DP  RH WIND       PRES   REMARKS
ASHEVILLE      SUNNY     79  56  45 N20       29.95R
JEFFERSON      PTSUNNY   71  52  50 NW12G21   29.97S
MORGANTON      CLOUDY    81  56  41 NW9       29.94R
HICKORY        SUNNY     83  55  38 NW9G18    29.88R
RUTHERFORDTON  SUNNY     85  59  42 NW8G21    29.89S
MOUNT AIRY     CLOUDY    82  56  41 NW8       29.86S
BOONE          PTSUNNY   72  52  49 NW10G25   29.99R
$$

NCZ021-022-025-041-071-084-088-282100-
CENTRAL NORTH CAROLINA

CITY           SKY/WX    TMP DP  RH WIND       PRES   REMARKS
CHARLOTTE      MOSUNNY   88  60  38 NW9G21    29.84S
GREENSBORO     MOSUNNY   85  56  37 NW13      29.83S
WINSTON-SALEM  MOSUNNY   86  54  33 N14G21    29.85S
RALEIGH-DURHAM PTSUNNY   84  61  45 NW6       29.80S
FORT BRAGG     PTSUNNY   91  64  40 W15G21    29.76F
FAYETTEVILLE   MOSUNNY   96  63  33 NW13G20   29.76F HX  97
BURLINGTON     PTSUNNY   89  58  34 NW8       29.81S
LAURINBURG     SUNNY     94  65  38 NW14      29.77F HX  96
$$

NCZ011-015-027-028-043-044-047-080-103-282100-
NORTHEASTERN NORTH CAROLINA

CITY           SKY/WX    TMP DP  RH WIND       PRES   REMARKS
ROCKY MT-WILSO MOSUNNY   88  63  43 W9        29.78S
GREENVILLE     MOSUNNY   88  68  51 NW9       29.80S
WASHINGTON     MOSUNNY   88  69  52 W9        29.77S
ELIZABETH CITY MOSUNNY   87  65  47 W15G24    29.74S
MANTEO         NOT AVBL
CAPE HATTERAS  PTSUNNY   86  78  77 SW10G17   29.77S HX  98
$$

NCZ078-087-090-091-093-098-101-282100-
SOUTHEASTERN NORTH CAROLINA

CITY           SKY/WX    TMP DP  RH WIND       PRES   REMARKS
LUMBERTON      TSTM      76  69  79 VRB3      29.76F VSB 3/4
GOLDSBORO      SUNNY     90  68  48 W14       29.75F
KINSTON        MOSUNNY   90  66  45 NW12      29.77F
KENANSVILLE    PTSUNNY   89  67  49 N6        29.77F
NEW BERN       MOSUNNY   91  70  49 VRB3      29.77F HX  96
CHERRY POINT   PTSUNNY   88  72  58 SW10      29.77F
BEAUFORT       PTSUNNY   87  79  76 SW17      29.77F HX 101
JACKSONVILLE   SUNNY     89  72  56 SW12      29.76F HX  96
WILMINGTON     PTSUNNY   89  77  67 SW9       29.77F HX 101
$$



USA.gov is the U.S. government's official web portal to all federal, state and local government web resources and services.